This is the latest recevied weather packets stored in our database for station/object KA1JKB. If no packets are shown the sender has not sent any weather packets the latest 10 day(s).
| Time | Temp. | Humidity | Pressure | Rain* | Wind** | Luminosity | Snow |
|---|---|---|---|---|---|---|---|
| 1777488305 | 10° C | 90% | 1008.2 hPa | 0 mm | - | 103 W/m² | - |
| 1777488003 | 10° C | 90% | 1007.9 hPa | 0 mm | - | 142 W/m² | - |
| 1777487701 | 10° C | 89% | 1008.1 hPa | 0 mm | - | 144 W/m² | - |
| 1777487397 | 10.56° C | 89% | 1008.2 hPa | 0 mm | - | 103 W/m² | - |
| 1777487095 | 10° C | 88% | 1008 hPa | 0 mm | - | 92 W/m² | - |
| 1777486790 | 10° C | 89% | 1008 hPa | 0 mm | - | 83 W/m² | - |
| 1777486489 | 10° C | 88% | 1008.1 hPa | 0 mm | - | 67 W/m² | - |
| 1777486186 | 10° C | 88% | 1008.3 hPa | 0 mm | - | 65 W/m² | - |
| 1777485884 | 10.56° C | 87% | 1008.1 hPa | 0 mm | - | 62 W/m² | - |
| 1777485579 | 10° C | 86% | 1008.1 hPa | 0 mm | - | 71 W/m² | - |
| 1777485275 | 10.56° C | 86% | 1008.3 hPa | 0 mm | - | 82 W/m² | - |
| 1777484971 | 10.56° C | 86% | 1008.3 hPa | 0 mm | - | 98 W/m² | - |
| 1777484668 | 10.56° C | 86% | 1008.5 hPa | 0 mm | - | 109 W/m² | - |
| 1777484365 | 10.56° C | 85% | 1008.3 hPa | 0 mm | - | 114 W/m² | - |
| 1777484061 | 10.56° C | 85% | 1008.4 hPa | 0 mm | - | 108 W/m² | - |
| 1777483757 | 10.56° C | 86% | 1008.5 hPa | 0 mm | - | 108 W/m² | - |
| 1777483454 | 10.56° C | 85% | 1008.5 hPa | 0 mm | - | 131 W/m² | - |
| 1777483149 | 11.11° C | 86% | 1008.2 hPa | 0 mm | - | 193 W/m² | - |
| 1777482846 | 11.11° C | 85% | 1008.5 hPa | 0 mm | - | 249 W/m² | - |
| 1777482541 | 11.11° C | 84% | 1008.4 hPa | 0 mm | - | 288 W/m² | - |
| 1777482239 | 11.11° C | 86% | 1008.4 hPa | 0 mm | - | 344 W/m² | - |
| 1777481936 | 11.11° C | 86% | 1008.2 hPa | 0 mm | - | 348 W/m² | - |
| 1777481633 | 11.11° C | 86% | 1008.4 hPa | 0 mm | - | 382 W/m² | - |
| 1777481330 | 11.11° C | 89% | 1008.3 hPa | 0 mm | - | 450 W/m² | - |
| 1777481027 | 10.56° C | 90% | 1008.4 hPa | 0 mm | - | 433 W/m² | - |
* Rain latest hour (hover to see other rain measurements)
** Current wind speed in m/s (hover to see current wind gust speed)